GW2788 Weather Reports


time (UTC)temp
C
wind
direction
speed
KPH
gust
KPH
rain 1hr
cm
rain 24hr
cm
rain mn
cm
humidity
%
barometer
mb
20260504232019 17 148 3.2 20.9 0.00 0.00 0.00 44 1014.5
20260504231531 17 115 3.2 20.9 0.00 0.00 0.00 44 1014.4
20260504231022 17 140 6.4 17.7 0.00 0.00 0.00 43 1014.3
20260504230522 17 205 1.6 14.5 0.00 0.00 0.00 43 1014.3
20260504230037 17 126 6.4 19.3 0.00 0.00 0.00 42 1014.2
20260504225518 17 120 8.0 19.3 0.00 0.00 0.00 42 1014.3
20260504225021 18 125 6.4 16.1 0.00 0.00 0.00 41 1014.2
20260504224535 18 133 6.4 16.1 0.00 0.00 0.00 42 1014.2
20260504224021 18 205 3.2 16.1 0.00 0.00 0.00 42 1014.2
20260504223519 18 98 6.4 16.1 0.00 0.00 0.00 43 1014.3
20260504223041 18 232 4.8 16.1 0.00 0.00 0.00 43 1014.2
20260504222521 18 65 3.2 16.1 0.00 0.00 0.00 44 1014.2
20260504222021 18 70 4.8 16.1 0.00 0.00 0.00 42 1014.3
20260504221531 18 304 6.4 16.1 0.00 0.00 0.00 41 1014.3
20260504221019 19 236 6.4 16.1 0.00 0.00 0.00 42 1014.3
20260504220519 19 259 6.4 17.7 0.00 0.00 0.00 41 1014.2
20260504220043 19 105 4.8 17.7 0.00 0.00 0.00 41 1014.1
20260504215521 20 125 6.4 17.7 0.00 0.00 0.00 41 1014.2
20260504215018 20 151 3.2 17.7 0.00 0.00 0.00 42 1014.1
20260504214542 20 265 4.8 17.7 0.00 0.00 0.00 41 1014.1
20260504214019 20 223 4.8 16.1 0.00 0.00 0.00 44 1014.1
20260504213519 20 103 8.0 16.1 0.00 0.00 0.00 41 1014.0
20260504213040 20 212 3.2 11.3 0.00 0.00 0.00 42 1014.1
20260504212520 20 240 4.8 12.9 0.00 0.00 0.00 40 1014.1
20260504212024 20 254 3.2 12.9 0.00 0.00 0.00 39 1014.1
20260504211537 20 270 6.4 12.9 0.00 0.00 0.00 38 1014.1
20260504211019 20 96 4.8 16.1 0.00 0.00 0.00 40 1014.0
20260504210519 19 100 3.2 16.1 0.00 0.00 0.00 42 1014.1
20260504210037 19 172 8.0 16.1 0.00 0.00 0.00 43 1014.1
20260504205521 20 115 6.4 14.5 0.00 0.00 0.00 42 1014.0
20260504205019 20 109 3.2 12.9 0.00 0.00 0.00 40 1014.1
20260504204535 20 259 3.2 16.1 0.00 0.00 0.00 41 1014.1
20260504204020 20 267 4.8 16.1 0.00 0.00 0.00 42 1014.1
20260504203521 20 144 4.8 17.7 0.00 0.00 0.00 44 1014.2
20260504203037 20 248 3.2 17.7 0.00 0.00 0.00 40 1014.2
20260504202520 20 213 9.7 17.7 0.00 0.00 0.00 39 1014.2
20260504202019 20 247 9.7 16.1 0.00 0.00 0.00 39 1014.2
20260504201539 20 150 4.8 17.7 0.00 0.00 0.00 38 1014.2
20260504201022 20 260 4.8 17.7 0.00 0.00 0.00 38 1014.2
20260504200520 20 344 8.0 17.7 0.00 0.00 0.00 35 1014.2
20260504200035 20 298 6.4 16.1 0.00 0.00 0.00 35 1014.3
20260504195519 20 206 4.8 11.3 0.00 0.00 0.00 38 1014.5
20260504195022 20 245 1.6 17.7 0.00 0.00 0.00 40 1014.5
20260504194532 20 167 3.2 17.7 0.00 0.00 0.00 41 1014.6
20260504194022 19 198 6.4 16.1 0.00 0.00 0.00 39 1014.6
20260504193521 19 194 4.8 14.5 0.00 0.00 0.00 39 1014.8
20260504193039 20 101 3.2 19.3 0.00 0.00 0.00 42 1014.9
20260504192519 19 240 4.8 19.3 0.00 0.00 0.00 40 1014.9
20260504192022 19 302 8.0 19.3 0.00 0.00 0.00 42 1014.9
20260504191543 18 153 11.3 17.7 0.00 0.00 0.00 44 1015.0
20260504191019 18 58 3.2 12.9 0.00 0.00 0.00 44 1015.1
20260504190522 18 309 4.8 12.9 0.00 0.00 0.00 41 1015.2
20260504190037 18 89 1.6 11.3 0.00 0.00 0.00 41 1015.4
20260504185519 18 272 4.8 17.7 0.00 0.00 0.00 41 1015.5
20260504185019 19 0 6.4 17.7 0.00 0.00 0.00 39 1015.5
20260504184545 19 261 4.8 17.7 0.00 0.00 0.00 41 1015.5
20260504184019 18 302 6.4 17.7 0.00 0.00 0.00 42 1015.4
20260504183520 19 221 8.0 20.9 0.00 0.00 0.00 39 1015.6
20260504183034 18 190 9.7 22.5 0.00 0.00 0.00 41 1015.6
20260504182519 18 198 9.7 22.5 0.00 0.00 0.00 41 1015.6
20260504182019 18 272 6.4 19.3 0.00 0.00 0.00 44 1015.6
20260504181541 18 249 6.4 19.3 0.00 0.00 0.00 43 1015.7
20260504181019 18 207 11.3 19.3 0.00 0.00 0.00 44 1015.7
20260504180522 18 222 4.8 17.7 0.00 0.00 0.00 44 1015.6
20260504180042 17 267 9.7 29.0 0.00 0.00 0.00 44 1015.7
20260504175522 17 269 4.8 29.0 0.00 0.00 0.00 45 1015.7
20260504175022 17 241 11.3 17.7 0.00 0.00 0.00 43 1015.7
20260504174538 17 293 4.8 17.7 0.00 0.00 0.00 44 1015.8
20260504174020 18 314 4.8 17.7 0.00 0.00 0.00 46 1015.8
20260504173519 18 269 6.4 16.1 0.00 0.00 0.00 43 1015.9
20260504173036 17 234 6.4 16.1 0.00 0.00 0.00 43 1015.8
20260504172519 17 197 6.4 16.1 0.00 0.00 0.00 43 1015.8
20260504172019 17 233 6.4 14.5 0.00 0.00 0.00 43 1015.8
20260504171535 17 214 1.6 17.7 0.00 0.00 0.00 47 1015.8
20260504171026 17 309 6.4 20.9 0.00 0.00 0.00 41 1015.9
20260504170524 17 253 8.0 20.9 0.00 0.00 0.00 43 1015.8
20260504151020 14 293 6.4 19.3 0.00 0.00 0.00 52 1017.4
20260504150519 13 295 9.7 20.9 0.00 0.00 0.00 48 1017.5
20260504141019 13 237 6.4 12.9 0.00 0.00 0.00 52 1016.9
20260504140519 13 277 6.4 16.1 0.00 0.00 0.00 52 1017.0
20260504130522 11 263 3.2 9.7 0.00 0.00 0.00 54 1016.5
20260504110522 4 127 0.0 3.2 0.00 0.00 0.00 74 1015.7
20260504100522 5 274 0.0 8.0 0.00 0.00 0.00 72 1015.5
20260504081537 3 0 0.0 1.6 0.00 0.00 0.00 72 1015.7
20260504081018 3 0 0.0 1.6 0.00 0.00 0.00 71 1015.7
20260504080519 3 0 0.0 1.6 0.00 0.00 0.00 71 1015.6
20260504050524 3 354 1.6 3.2 0.00 0.00 0.00 70 1016.3
20260504045521 3 335 1.6 4.8 0.00 0.00 0.00 67 1016.4
20260504045020 3 0 0.0 4.8 0.00 0.00 0.00 67 1016.4
20260504044535 3 17 3.2 4.8 0.00 0.00 0.00 67 1016.3
20260504044020 3 27 1.6 4.8 0.00 0.00 0.00 68 1016.3
20260504043522 3 0 0.0 4.8 0.00 0.00 0.00 68 1016.2
20260504043036 3 32 0.0 4.8 0.00 0.00 0.00 70 1016.2
20260504042521 3 0 0.0 1.6 0.00 0.00 0.00 69 1016.1
20260504042020 3 0 0.0 1.6 0.00 0.00 0.00 69 1016.0
20260504041535 3 33 0.0 3.2 0.00 0.00 0.00 67 1016.1
20260504041019 3 0 0.0 3.2 0.00 0.00 0.00 68 1016.2
20260504040519 3 4 0.0 4.8 0.00 0.00 0.00 68 1016.2
20260504040036 3 87 1.6 4.8 0.00 0.00 0.00 70 1016.1
20260504035522 3 68 3.2 4.8 0.00 0.00 0.00 70 1016.1
20260504035018 3 134 0.0 3.2 0.00 0.00 0.00 69 1016.2
20260504034535 3 0 0.0 4.8 0.00 0.00 0.00 69 1016.2
20260504034019 3 0 0.0 4.8 0.00 0.00 0.00 71 1016.0
20260504033519 3 91 1.6 4.8 0.00 0.00 0.00 70 1015.9
20260504033046 3 316 3.2 4.8 0.00 0.00 0.00 68 1015.9
20260504032520 3 338 1.6 3.2 0.00 0.00 0.00 69 1015.9
20260504032021 3 0 0.0 0.0 0.00 0.00 0.00 66 1015.9
20260504031533 3 0 0.0 1.6 0.00 0.00 0.00 66 1015.9
20260504031019 3 0 0.0 1.6 0.00 0.00 0.00 66 1016.0
20260504030519 4 0 0.0 1.6 0.00 0.00 0.00 66 1016.0
20260504030036 4 121 0.0 4.8 0.00 0.00 0.00 65 1016.0
20260504025520 4 0 0.0 4.8 0.00 0.00 0.00 66 1016.1
20260504025022 4 120 1.6 3.2 0.00 0.00 0.00 64 1016.2
20260504024549 4 0 0.0 1.6 0.00 0.00 0.00 64 1016.2
20260504024022 5 303 0.0 1.6 0.00 0.00 0.00 62 1016.2
20260504023521 5 0 0.0 1.6 0.00 0.00 0.00 60 1016.3
20260504023037 5 0 0.0 1.6 0.00 0.00 0.00 58 1016.3
20260504022521 6 0 0.0 6.4 0.00 0.00 0.00 58 1016.4
20260504022020 6 302 3.2 11.3 0.00 0.00 0.00 57 1016.3
20260504021541 6 314 3.2 11.3 0.00 0.00 0.00 56 1016.2
20260504021019 6 305 6.4 11.3 0.00 0.00 0.00 55 1016.2
20260504020520 6 318 6.4 11.3 0.00 0.00 0.00 55 1016.2
20260504020035 6 302 4.8 9.7 0.00 0.00 0.00 55 1016.2
20260504015521 6 325 4.8 8.0 0.00 0.00 0.00 54 1016.0
20260504015022 6 314 3.2 8.0 0.00 0.00 0.00 54 1016.0
20260504014535 7 319 4.8 8.0 0.00 0.00 0.00 53 1015.9
20260504014019 6 300 4.8 8.0 0.00 0.00 0.00 53 1015.9
20260504013520 6 319 3.2 8.0 0.00 0.00 0.00 54 1015.8
20260504013043 6 326 3.2 6.4 0.00 0.00 0.00 56 1015.8
20260504012521 6 336 1.6 3.2 0.00 0.00 0.00 57 1015.7
20260504012020 6 336 1.6 4.8 0.00 0.00 0.00 55 1015.5
20260504011534 7 310 1.6 8.0 0.00 0.00 0.00 52 1015.5
20260504011022 7 300 3.2 8.0 0.00 0.00 0.00 49 1015.5
20260504010520 7 300 3.2 6.4 0.00 0.00 0.00 50 1015.4
20260504010035 7 309 3.2 9.7 0.00 0.00 0.00 50 1015.4
20260504005521 7 278 3.2 9.7 0.00 0.00 0.00 50 1015.5
20260504005020 7 271 4.8 9.7 0.00 0.00 0.00 50 1015.5
20260504004543 8 278 3.2 9.7 0.00 0.00 0.00 50 1015.5
20260504004019 8 296 6.4 9.7 0.00 0.00 0.00 46 1015.5
20260504003520 8 321 4.8 8.0 0.00 0.00 0.00 45 1015.5
20260504003035 8 278 0.0 9.7 0.00 0.00 0.00 46 1015.5
20260504002519 9 298 3.2 9.7 0.00 0.00 0.00 45 1015.6
20260504002019 9 0 1.6 9.7 0.00 0.00 0.00 43 1015.5
20260504001535 9 328 4.8 9.7 0.00 0.00 0.00 43 1015.5
20260504001022 10 321 4.8 8.0 0.00 0.00 0.00 42 1015.5
20260504000524 10 321 1.6 8.0 0.00 0.00 0.00 41 1015.3
20260504000040 10 8 3.2 8.0 0.00 0.00 0.00 39 1015.3
20260503235521 11 0 0.0 1.6 0.00 0.00 0.00 37 1015.3
20260503235019 11 0 0.0 4.8 0.00 0.00 0.00 35 1015.3
20260503234538 11 330 0.0 11.3 0.00 0.00 0.00 31 1015.2
20260503234020 11 271 3.2 11.3 0.00 0.00 0.00 30 1015.2
20260503233519 12 226 4.8 9.7 0.00 0.00 0.00 29 1015.1
20260503233035 12 295 3.2 11.3 0.00 0.00 0.00 30 1015.2
20260503232519 12 268 3.2 11.3 0.00 0.00 0.00 29 1015.1